Weather History for Debrecen, Hungary

Change the Weather History Date:

Wednesday, February 6, 2013

  Actual Average Record
Temperature  
Mean Temperature 40 °F -  
Max Temperature 49 °F 41 °F - ()
Min Temperature 31 °F 28 °F - ()
Degree Days  
Heating Degree Days 24    
Moisture  
Dew Point 36 °F    
Average Humidity 80    
Maximum Humidity 100    
Minimum Humidity 62    
Precipitation  
Precipitation 0.00 in 0.04 in - ()
Sea Level Pressure  
Sea Level Pressure 29.53 in    
Wind  
Wind Speed 6 mph ()    
Max Wind Speed 15 mph    
Max Gust Speed -    
Visibility 7.4 miles    
Events Rain    
T = Trace of Precipitation, MM = Missing Value Source: Averaged Metar Reports

Daily Weather History Graph

Daily Weather History Graph

Search for Another Location

Airport:

Trip Planner

Search our weather history database for the weather conditions in past years. The results will help you decide how hot, cold, wet, or windy it might be!

Date:

Astronomy

Feb. 06, 2013 Rise Set
Actual Time 6:52 AM CET 4:42 PM CET
Civil Twilight 6:20 AM CET 5:15 PM CET
Nautical Twilight 5:44 AM CET 5:51 PM CET
Astronomical Twilight 5:08 AM CET 6:27 PM CET
Moon 3:26 AM CET (2/6) 12:33 PM CET (2/6)
Length of Visible Light 10h 54m
Length of Day
9h 49m
Waning Crescent, 19% of the Moon is Illuminated
Feb 6
Waning Crescent
Feb 10
New
Feb 17
First Quarter
Feb 25
Full
Mar 4
Last Quarter

Hourly Weather History & Observations

Time (CET) Temp. Windchill Dew Point Humidity Pressure Visibility Wind Dir Wind Speed Gust Speed Precip Events Conditions
1:00 AM 37 °F - 35 °F 89% 29.66 in - SSE 8.9 mph - -  
5:15 AM 32.0 °F 27.5 °F 32.0 °F 100% 29.59 in - NE 4.6 mph - N/A   Clear
5:45 AM 32.0 °F 25.6 °F 32.0 °F 100% 29.59 in - ENE 6.9 mph - N/A   Clear
6:11 AM - - - N/A% - - East 5.8 mph - N/A Rain Light Rain
6:15 AM 33.8 °F 28.6 °F 32.0 °F 93% 29.56 in - East 5.8 mph - N/A   Clear
6:45 AM 33.8 °F 29.6 °F 32.0 °F 93% 29.56 in 6.2 mi ENE 4.6 mph - N/A   Overcast
7:00 AM 34 °F - 33 °F 92% 29.59 in 9 mi ENE 4.5 mph - -   Partly Cloudy
7:15 AM 33.8 °F 29.6 °F 32.0 °F 93% 29.56 in 6.2 mi ENE 4.6 mph - N/A   Overcast
7:45 AM 33.8 °F 29.6 °F 32.0 °F 93% 29.56 in 6.2 mi ENE 4.6 mph - N/A   Overcast
8:15 AM 33.8 °F 29.6 °F 33.8 °F 100% 29.56 in 6.2 mi East 4.6 mph - N/A   Overcast
8:45 AM 37.4 °F 33.8 °F 35.6 °F 93% 29.56 in 6.2 mi ENE 4.6 mph - N/A   Mostly Cloudy
9:00 AM - - - N/A% - 4.3 mi East 5.8 mph - N/A Rain Light Rain
9:15 AM 39.2 °F 35.9 °F 35.6 °F 87% 29.53 in - ENE 4.6 mph - N/A   Clear
9:45 AM 41.0 °F 38.0 °F 37.4 °F 87% 29.53 in - East 4.6 mph - N/A   Clear
10:15 AM 42.8 °F 41.1 °F 37.4 °F 81% 29.56 in - SE 3.5 mph - N/A   Clear
10:45 AM 46.4 °F 43.5 °F 35.6 °F 66% 29.53 in - SSE 5.8 mph - N/A   Clear
11:15 AM 46.4 °F 41.9 °F 35.6 °F 66% 29.50 in - South 9.2 mph - N/A   Clear
11:45 AM 50.0 °F - 37.4 °F 62% 29.50 in - SSW 12.7 mph - N/A   Clear
12:00 PM - - - N/A% - - South 12.7 mph - N/A Rain Light Rain
12:15 PM 46.4 °F 40.1 °F 35.6 °F 66% 29.50 in - South 15.0 mph - N/A   Clear
12:45 PM 46.4 °F 40.7 °F 37.4 °F 71% 29.50 in 6.2 mi South 12.7 mph - N/A   Mostly Cloudy
1:00 PM 46 °F - 37 °F 62% 29.51 in 16 mi South 11.2 mph - -   Partly Cloudy
1:15 PM 46.4 °F 42.4 °F 37.4 °F 71% 29.50 in - SSW 8.1 mph - N/A   Clear
1:45 PM 48.2 °F - 37.4 °F 66% 29.50 in - SSW 11.5 mph - N/A   Clear
2:15 PM 48.2 °F - 37.4 °F 66% 29.47 in - SSW 8.1 mph - N/A   Clear
2:45 PM 48.2 °F - 39.2 °F 71% 29.50 in - SSW 8.1 mph - N/A   Clear
3:15 PM 48.2 °F - 39.2 °F 71% 29.50 in - South 5.8 mph - N/A   Clear
3:45 PM 46.4 °F - 41.0 °F 81% 29.47 in - SE 2.3 mph - N/A   Clear
4:15 PM 46.4 °F - 39.2 °F 76% 29.47 in - Calm Calm - N/A   Clear
4:45 PM 46.4 °F - 39.2 °F 76% 29.47 in - Calm Calm - N/A   Clear
7:00 PM 42 °F - 38 °F 81% 29.50 in - Calm Calm - -